Location: Aula-Vintri
(58.3875°N, 22.4322°E)
Time: 23:27:21
(UTC+00:00)

Cosmos 2058 - Pass Details

Date: 13 October 2019
Orbit: 563 x 584 km, 82.5° (Epoch: 17 November)

Event Time Altitude Azimuth Distance (km) Brightness Sun altitude
Rises 18:38:23 0° 344° (NNW) 2,822 7.1 -24.7°
Reaches altitude 10° 18:40:36 10° 340° (NNW) 1,919 6.2 -25.0°
Maximum altitude 18:44:45 56° 263° (W) 703 3.5 -25.4°
Enters shadow 18:45:03 54° 244° (WSW) 714 3.4 -25.5°
